COSMOS 2251 DEB

Satellite information

Favourite Embed

Satellite Type and Status

DEBRISIN ORBIT

Key statistics

Satellite COSMOS 2251 DEB at a glance.

Uptime

11817

Days in orbit

Revolutions

≈ 14.4

Per day

Orbit

LEO

Low Earth Orbit

Inclination

74.0

Latest

Satellite identification and parameters

Extended collection of information and parameters for COSMOS 2251 DEB.

Object identification

Identified? True

Debris? True

Object name: COSMOS 2251 DEB

International designator: 1993-036GW

Object number (NORAD): 34011

Object ID (CCSDS): 34011

Country: COMMONWEALTH OF INDEPENDENT STATES (CIS)

Current information (Y/N): Y

RCS size: SMALL

Orbital parameters

Period: 99.906 minutes

Inclination: 74.0149 deg

SMA: 7132.141 km

Apoapsis: 781.032 km

Periapsis: 726.98 km

RAAN: 65.2429 deg

Eccentricy: 0.00378934

Argument of periapsis: 164.2448 deg

Mean anomaly: 195.9897 deg

Mean motion: 14.41361499 rev/day

Mean motion (dot): 0.00004788 rev/day2

B* drag term: 0.001473014 1/REarth

Two-line elements (TLE)

Creation date: Oct. 23, 2025, 2:46 a.m.

Reference frame: TEME

Reference center: EARTH

Epoch: Oct. 22, 2025, 11:24 a.m. UTC

TLE line 0: 0 COSMOS 2251 DEB

TLE line 1: 1 34011U 93036GW 25295.47545708 .00004788 00000-0 14730-2 0 9997

TLE line 2: 2 34011 74.0149 65.2429 0037893 164.2448 195.9897 14.41361499871773

Live tracking on map

Real-time ground track for satellite COSMOS 2251 DEB.

In-orbit conjunctions

A list of the most updated potential collisions computed for object COSMOS 2251 DEB.

Target Orbit TCA Probability of collision Miss distance Type
COSMOS 1275 DEB LEO 2025-08-24 05:43:24 0.0003048397 73.0 (m) DEBRIS
COSMOS 858 LEO 2024-10-24 21:53:07 0.0002324207 858.0 (m) PAYLOAD
COSMOS 2251 DEB LEO 2024-06-28 17:37:23 0.0001015467 583.0 (m) DEBRIS

Associated space launch

Military communications satellite. Destroyed in a collision with Iridium 33.

COSMOS 2251 DEB was lifted into orbit during the mission ‘Kosmos-3M | Strela-2M 51’, on board a Kosmos-3M space rocket.

The launch took place on June 16, 1993, 4:17 a.m. from 132/1 (132L).

For more information about the launch, click the button.

Launch to space Kosmos-3M | Strela-2M 51
Kosmos-3M | Strela-2M 51

Agency: N/A

Status: Launch Successful

Launch date: June 16, 1993, 4:17 a.m. UTC

Rocket: Kosmos-3M

Launch pad: 132/1 (132L)

Location: Plesetsk Cosmodrome, Russian Federation

...

Latest news about this satellite

There are no fresh news available about this satellite. Check back as we update our databases every day.


Newsletter sign-up

Weekly statistics, charts and insights to help you stay on top of the space industry.